Погода в Шапкине

Россия / Тамбовская область     51°42′33″N   42°23′16″E
темп.,
°C
ветер,
м/с
пор.,
м/с
влажн.,
%
обл.,
%
осадки,
мм/ч
давл.,
гПа
погр.,
м
22 января, сб
сб2200:00−6ююз37935 0.3 1010105
03:00−9ю49945 0.3 1010119
06:00−12ю379976 0.0 101174
09:00−10ю389876 0.0 1012132
12:00−5ююз4109490 0.0 1013455
15:00−4ю479494 0.1 1014458
18:00−10ю359868 0.0 101649
21:00−13ю229988 0.1 101818
23 января, вс
вс2300:00−5ю2591100 0.1 1018199
03:00−5ююв3494100 0.1 1020130
06:00−10вюв3497100 0.0 102265
09:00−10в2397100 0.0 102464
12:00−5всв3493100 0.0 1024175
15:00−4св4893100 0.0 1025335
18:00−3св61295100 0.6 1025525
21:00−3всв51097100 2.3 1026415
24 января, пн
пн2400:00−3в61194100 1.3 1027425
03:00−6всв51090100 1.4 1028344
06:00−8всв51289100 0.0 1029287
09:00−10всв51288100 0.0 1030258
12:00−7всв61288100 0.0 1030389
15:00−6в51188100 0.0 1030366
18:00−10всв41191100 0.0 1031196
21:00−11в41192100 0.0 1031206
25 января, вт
вт2500:00−11в41192100 0.0 1030212
03:00−11в41192100 0.0 1029223
06:00−12в41193100 0.0 1028199
09:00−11вюв5119398 0.0 1028251
12:00−8юв51093100 0.1 1026331
15:00−6юв4895100 0.3 1025349
18:00−5юв4996100 0.1 1025297
21:00−4юв4996100 0.3 1024309
26 января, ср
ср2600:00−3ююв4897100 0.1 1023278
03:00−2ююв4997100 0.3 1022345
06:00−3ю4997100 0.1 1021309
09:00−4ю4894100 0.3 1022525
12:00−4ююв4796100 0.4 1021335
15:00−1ю3694100 0.8 1020514
18:00−2ююв4795100 0.1 1021276
21:00−11ю3499100 0.1 102243